Content
SEND FEEDBACK

Daily
Averages
Monthly
Summary
United States of America

BERKELEY, MISSOURI


Home > North America > United States > Missouri
Elevation: 564 feet     Latitude: 38 45N     Longitude: 090 22W

WEATHER
 
SELECT A DAY
Number of Records: 206,484;   Date Range: 1/1/95 - 10/19/14
 
SHARE

PRINT THIS DATA

[ ← Previous Day ]
WEATHER ALMANAC - JANUARY 25, 2013
[ Next Day → ]
[ °C ]   °F
Weather ElementAverageHighLow
Temperature34.4 °F44.1 °F (3:51 pm)28 °F (1:51 am)
Dewpoint14.3 °F19.4 °F (11:51 pm)6.8 °F (4:31 am)
Humidity43.9 %52 % (11:51 pm)35 % (3:51 pm)
Barometer30.18 in30.25 in (10:51 pm)30.14 in (5:45 am)
Wind Speed8 mph13.8 mph (11:51 am)
Wind Gust19.6 mph (1:51 pm)
Weather ElementAverage
Visibility10 mi
Wind DirectionSSW (208.6 °)

Weather ElementTotal
Precipitation---
Heating Degree Days29 (Base 65)
Averaged from 29 records on January 25, 2013
WEATHER CONDITIONS BREAKOUT
WIND DIRECTION BREAKOUT
WEATHER BY HOUR - JANUARY 25, 2013
[ °C ]   °F
Local TimeTemperatureDewpointHumidityBarometerVisibilityWind DirectionWind SpeedGust SpeedPrecipitationEventsConditions
1:51 AM28.0 °F8.1 °F43 %30.22 in10.0 miSE (140°)10.4 mph0.00 inOvercast
2:51 AM28.0 °F7.0 °F41 %30.22 in10.0 miSE (140°)4.6 mphOvercast
3:51 AM28.0 °F7.0 °F41 %30.22 in10.0 miCalmOvercast
4:31 AM28.4 °F6.8 °F40 %30.15 in10.0 miSE (130°)8.1 mphOvercast
4:51 AM28.0 °F7.0 °F41 %30.20 in10.0 miSouth (180°)3.5 mphOvercast
5:45 AM28.4 °F8.6 °F43 %30.14 in10.0 miCalm0.00 inOvercast
5:51 AM28.9 °F9.0 °F43 %30.17 in10.0 miSouth (180°)3.5 mph0.00 inOvercast
6:51 AM28.0 °F10.9 °F49 %30.18 in10.0 miCalmMostly Cloudy
7:32 AM28.4 °F12.2 °F51 %30.15 in10.0 miCalmOvercast
7:51 AM28.9 °F12.9 °F51 %30.19 in10.0 miCalmOvercast
8:51 AM30.9 °F14.0 °F50 %30.21 in10.0 miWest (270°)5.8 mphOvercast
9:51 AM33.1 °F15.1 °F48 %30.21 in10.0 miWest (270°)12.7 mphOvercast
10:05 AM33.8 °F15.8 °F48 %30.18 in10.0 miWest (260°)10.4 mphOvercast
10:34 AM35.6 °F15.8 °F44 %30.17 in10.0 miWNW (300°)11.5 mphMostly Cloudy
10:51 AM36.0 °F16.0 °F44 %30.20 in10.0 miWest (280°)12.7 mphMostly Cloudy
10:58 AM35.6 °F15.8 °F44 %30.17 in10.0 miWNW (300°)12.7 mphMostly Cloudy
11:23 AM37.4 °F15.8 °F41 %30.16 in10.0 miNW (310°)11.5 mph18.4 mphScattered Clouds
11:51 AM37.9 °F17.1 °F43 %30.17 in10.0 miWest (280°)13.8 mphScattered Clouds
12:51 PM39.9 °F18.0 °F41 %30.16 in10.0 miWNW (290°)11.5 mphPartly Cloudy
1:51 PM42.1 °F18.0 °F38 %30.15 in10.0 miWNW (290°)9.2 mph19.6 mphScattered Clouds
2:51 PM43.0 °F19.0 °F38 %30.14 in10.0 miWest (280°)13.8 mph19.6 mphScattered Clouds
3:51 PM44.1 °F18.0 °F35 %30.14 in10.0 miWest (260°)13.8 mphScattered Clouds
4:51 PM41.0 °F18.0 °F40 %30.16 in10.0 miWSW (250°)10.4 mphMostly Cloudy
5:51 PM39.0 °F18.0 °F43 %30.18 in10.0 miWest (270°)8.1 mphMostly Cloudy
6:51 PM39.0 °F17.1 °F41 %30.19 in10.0 miWest (260°)11.5 mphMostly Cloudy
7:51 PM37.9 °F17.1 °F43 %30.19 in10.0 miWest (260°)6.9 mphScattered Clouds
9:51 PM37.0 °F18.0 °F46 %30.22 in10.0 miWest (270°)11.5 mphMostly Cloudy
10:51 PM36.0 °F19.0 °F50 %30.25 in10.0 miWest (280°)9.2 mphMostly Cloudy
11:51 PM35.6 °F19.4 °F52 %30.23 in10.0 miWNW (300°)4.6 mphMostly Cloudy
Hourly data recorded from KSTL, located miles away from Berkeley, Missouri







STORIES FROM OUR PARTNERS